CDT,Max TemperatureF,Mean TemperatureF,Min TemperatureF,Max Dew PointF,MeanDew PointF,Min DewpointF,Max Humidity, Mean Humidity, Min Humidity, Max Sea Level PressureIn, Mean Sea Level PressureIn, Min Sea Level PressureIn, Max VisibilityMiles, Mean VisibilityMiles, Min VisibilityMiles, Max Wind SpeedMPH, Mean Wind SpeedMPH, Max Gust SpeedMPH,PrecipitationIn, CloudCover, Events, WindDirDegrees
2011-10-1,66,52,37,34,29,21,87,50,18,30.35,30.28,30.22,10,10,7,12,5,17,0.00,0,,141
2011-10-2,78,60,42,32,28,18,61,38,10,30.24,30.20,30.13,10,10,7,17,9,18,0.00,0,,175
2011-10-3,80,60,41,36,26,12,76,36,8,30.22,30.18,30.14,10,10,5,15,8,18,0.00,0,,164
2011-10-4,86,68,50,34,29,23,47,27,12,30.17,30.13,30.04,10,10,7,22,11,30,0.00,0,,151
2011-10-5,84,70,57,39,33,19,51,29,9,30.11,30.07,30.01,10,10,5,18,11,26,0.00,0,,162
2011-10-6,82,66,51,39,33,21,58,34,11,30.07,30.02,29.96,10,10,10,25,13,33,0.00,0,,145
2011-10-7,82,73,64,52,48,39,52,38,30,29.98,29.95,29.90,10,10,7,34,23,43,0.00,3,,168
2011-10-8,80,73,66,59,49,46,61,44,34,30.10,30.05,29.97,10,10,10,25,18,32,0.00,4,Rain,177
2011-10-9,82,70,57,50,44,34,67,44,17,30.21,30.15,30.10,10,10,4,20,10,25,0.00,1,,152
2011-10-10,69,60,51,55,48,45,88,65,40,30.09,30.01,29.94,10,10,7,15,11,20,0.01,1,Rain,162
2011-10-11,75,62,48,57,48,36,94,68,24,29.94,29.88,29.79,10,7,0,17,9,23,0.00,2,Fog,163
2011-10-12,66,60,53,57,51,45,94,77,55,29.79,29.71,29.66,10,9,3,15,6,16,0.40,6,Rain,29
2011-10-13,66,55,44,52,43,36,94,67,32,29.73,29.70,29.66,10,10,5,26,10,33,0.03,1,Rain,306
2011-10-14,57,50,42,43,36,27,82,63,31,29.91,29.80,29.71,10,10,10,26,12,34,0.00,5,,294
2011-10-15,64,50,35,36,30,18,87,55,18,29.98,29.91,29.80,10,10,7,20,9,20,0.00,1,,275
2011-10-16,60,50,41,41,30,16,81,52,19,29.97,29.92,29.82,10,10,10,24,12,32,0.00,2,Rain,314
2011-10-17,59,46,33,28,23,12,75,45,17,29.98,29.94,29.90,10,10,10,24,11,33,0.00,0,,283
2011-10-18,48,40,33,30,25,19,75,53,34,30.04,29.98,29.90,10,10,10,21,12,29,0.00,3,,331
2011-10-19,48,39,30,28,25,19,69,57,43,30.07,30.04,30.01,10,10,10,18,12,24,0.00,6,,351
2011-10-20,53,42,30,28,24,18,86,58,24,30.00,29.97,29.94,10,10,10,20,11,25,0.00,0,,324
2011-10-21,66,45,24,28,23,19,80,49,18,30.07,30.02,29.98,10,10,10,15,7,21,0.00,0,,232
2011-10-22,62,50,37,36,30,25,75,48,24,30.13,30.07,30.02,10,10,3,10,6,,0.00,1,,357
2011-10-23,73,56,39,39,33,27,81,52,18,29.97,29.89,29.80,10,10,7,23,8,26,0.00,2,,241
2011-10-24,73,54,35,36,28,10,87,49,9,30.05,29.99,29.84,10,10,7,15,7,18,0.00,0,,214
2011-10-25,66,57,48,43,38,32,71,52,36,29.87,29.75,29.69,10,9,5,23,9,30,0.00,1,,63
2011-10-26,51,46,41,34,32,30,76,60,44,30.09,30.05,29.99,10,10,10,15,8,18,0.00,4,,349
2011-10-27,41,36,30,30,29,27,86,73,65,30.06,30.06,30.05,10,10,10,9,7,,0.00,0,,301
2011-10-28,55,44,32,21,11,3,55,30,12,30.09,30.06,30.04,10,10,10,20,12,31,0.00,1,,290
2011-10-29,55,40,24,21,13,5,69,38,13,30.07,30.00,29.88,10,10,10,16,8,21,0.00,0,,188
2011-10-30,53,48,42,34,23,14,66,39,24,29.96,29.84,29.77,10,10,10,25,14,33,0.00,5,Rain,278
2011-10-31,57,42,26,28,22,16,80,51,20,30.05,30.00,29.94,10,10,10,16,8,22,0.00,0,,227